Regional Weather Roundup
Issued by NWS

Home | Current Version | Previous Version | Text Only | Print | Product List | Glossary Off
Versions: 1 2 3 4 5 6 7 8 9 10 11 12 13 14 15 16 17 18 19 20 21 22 23 24 25 26 27 28 29 30 31 32 33 34 35 36 37 38 39 40 41 42 43 44 45 46 47 48 49 50

000
ASUS43 KBIS 230802
RWRND

NORTH DAKOTA REGIONAL WEATHER ROUNDUP
NATIONAL WEATHER SERVICE BISMARCK ND
300 AM CDT TUE AUG 23 2016

NOTE: "FAIR" INDICATES FEW OR NO CLOUDS BELOW 12,000 FEET WITH NO
SIGNIFICANT WEATHER AND/OR OBSTRUCTIONS TO VISIBILITY.


NDZ001>003-009>011-017-230900-
NORTHWEST NORTH DAKOTA

CITY           SKY/WX    TMP DP  RH WIND       PRES   REMARKS
WILLISTON      CLOUDY    59  41  51 NE3       29.65R
MINOT          FOG       65  65 100 NW6       29.59S VSB 1/4
MINOT AFB      CLEAR     65  64  97 NE3       29.58S
$$

NDZ018>021-031>035-040>046-230900-
SOUTHWEST NORTH DAKOTA

CITY           SKY/WX    TMP DP  RH WIND       PRES   REMARKS
BISMARCK       CLEAR     65  62  90 CALM      29.57F
DICKINSON      CLOUDY    57  55  93 W12       29.64R
GARRISON         N/A     63  62  97 NW3       29.59R
HETTINGER ARPT CLEAR     60  53  77 CALM      29.65R
$$

NDZ004>008-012>016-024-026-027-054-230900-
NORTHEAST NORTH DAKOTA

CITY           SKY/WX    TMP DP  RH WIND       PRES   REMARKS
GRAND FORKS    LGT RAIN  73  67  81 S22G28    29.63F
GRND FRKS AFB  CLOUDY    72  68  87 S18G28    29.64R
DEVILS LAKE    CLEAR     73  68  84 SE17      29.61F
$$

NDZ022-023-025-028>030-036>039-047>053-230900-
SOUTHEAST NORTH DAKOTA

CITY           SKY/WX    TMP DP  RH WIND       PRES   REMARKS
FARGO          PTCLDY    72  64  76 S17G25    29.68R
JAMESTOWN      CLEAR     71  65  81 S15       29.61S
$$





USA.gov is the U.S. government's official web portal to all federal, state and local government web resources and services.